Weather History for Versailles, OH

Change the Weather History Date:

Tuesday, March 12, 2013

  Actual Average (KDAY) Record (KDAY)
Temperature  
Mean Temperature 34 °F 39 °F  
Max Temperature 37 °F 48 °F 74 °F (1990)
Min Temperature 32 °F 30 °F -1 °F (1948)
Degree Days  
Heating Degree Days 30 26  
Month to date heating degree days 338  
Since 1 July heating degree days 4613  
Cooling Degree Days 0 0  
Month to date cooling degree days 0  
Year to date cooling degree days 0  
Moisture  
Dew Point 30 °F    
Average Humidity 89    
Maximum Humidity 100    
Minimum Humidity 75    
Precipitation  
Precipitation 0.00 in 0.10 in 1.43 in (1986)
Month to date precipitation 1.13  
Year to date precipitation 6.08  
Snow  
Snow 0.00 in 0.10 in 4.60 in (1984)
Month to date snowfall 1.8  
Since 1 July snowfall 21.1  
Snow Depth -    
Sea Level Pressure  
Sea Level Pressure 29.92 in    
Wind  
Wind Speed 13 mph (West)    
Max Wind Speed 21 mph    
Max Gust Speed 29 mph    
Visibility 9 miles    
Events Snow    
T = Trace of Precipitation, MM = Missing Value Source: NWS Daily Summary

Daily Weather History Graph

Daily Weather History Graph

Search for Another Location

Airport:

Trip Planner

Search our weather history database for the weather conditions in past years. The results will help you decide how hot, cold, wet, or windy it might be!

Date:

Astronomy

Mar. 12, 2013 Rise Set
Actual Time 7:54 AM EDT 7:42 PM EDT
Civil Twilight 7:27 AM EDT 8:09 PM EDT
Nautical Twilight 6:55 AM EDT 8:40 PM EDT
Astronomical Twilight 6:23 AM EDT 9:12 PM EDT
Moon 8:00 AM EDT (3/12) 8:56 PM EDT (3/12)
Length of Visible Light 12h 42m
Length of Day
11h 47m
New Moon, 1% of the Moon is Illuminated
Mar 12
New Moon
Mar 19
First Quarter
Mar 27
Full
Apr 3
Last Quarter
Apr 10
New

Hourly Weather History & Observations

Time (EDT) Temp. Windchill Dew Point Humidity Pressure Visibility Wind Dir Wind Speed Gust Speed Precip Events Conditions
12:15 AM 33.8 °F 25.3 °F 32.0 °F 93% 29.82 in 10.0 mi West 11.5 mph - N/A   Overcast
12:35 AM 33.8 °F 22.8 °F 32.0 °F 93% 29.82 in 10.0 mi West 18.4 mph 28.8 mph N/A   Overcast
12:55 AM 33.8 °F 23.9 °F 32.0 °F 93% 29.83 in 10.0 mi West 15.0 mph 20.7 mph N/A   Overcast
1:35 AM 33.8 °F 24.3 °F 32.0 °F 93% 29.84 in 5.0 mi West 13.8 mph 21.9 mph N/A   Overcast
1:55 AM 32.0 °F 21.2 °F 32.0 °F 100% 29.84 in 4.0 mi West 16.1 mph 21.9 mph N/A   Overcast
2:15 AM 32.0 °F 22.1 °F 32.0 °F 100% 29.85 in 4.0 mi West 13.8 mph - N/A Snow Light Snow
2:35 AM 32.0 °F 21.6 °F 32.0 °F 100% 29.85 in 7.0 mi WSW 15.0 mph 21.9 mph N/A   Overcast
2:55 AM 32.0 °F 21.2 °F 32.0 °F 100% 29.85 in 1.8 mi West 16.1 mph 24.2 mph N/A Snow Light Snow
3:15 AM 32.0 °F 22.1 °F 32.0 °F 100% 29.85 in 10.0 mi West 13.8 mph 18.4 mph N/A   Overcast
3:35 AM 32.0 °F 22.1 °F 32.0 °F 100% 29.86 in 10.0 mi West 13.8 mph - N/A   Overcast
3:55 AM 32.0 °F 22.5 °F 32.0 °F 100% 29.86 in 10.0 mi West 12.7 mph 20.7 mph N/A   Overcast
4:15 AM 32.0 °F 21.6 °F 32.0 °F 100% 29.85 in 10.0 mi West 15.0 mph 23.0 mph N/A   Overcast
4:35 AM 32.0 °F 22.1 °F 32.0 °F 100% 29.85 in 10.0 mi West 13.8 mph - N/A   Overcast
4:55 AM 32.0 °F 22.5 °F 32.0 °F 100% 29.85 in 10.0 mi West 12.7 mph 20.7 mph N/A   Overcast
5:15 AM 32.0 °F 23.0 °F 32.0 °F 100% 29.86 in 10.0 mi West 11.5 mph - N/A   Overcast
5:35 AM 32.0 °F 21.2 °F 32.0 °F 100% 29.87 in 10.0 mi West 16.1 mph 19.6 mph N/A   Overcast
5:55 AM 32.0 °F 22.5 °F 32.0 °F 100% 29.87 in 7.0 mi West 12.7 mph - N/A   Overcast
6:15 AM 32.0 °F 22.5 °F 32.0 °F 100% 29.87 in 7.0 mi WNW 12.7 mph 16.1 mph N/A   Overcast
6:35 AM 32.0 °F 21.6 °F 32.0 °F 100% 29.88 in 7.0 mi West 15.0 mph 20.7 mph N/A   Overcast
6:55 AM 32.0 °F 23.0 °F 32.0 °F 100% 29.88 in 10.0 mi West 11.5 mph - N/A   Overcast
7:15 AM 32.0 °F 22.5 °F 32.0 °F 100% 29.89 in 10.0 mi West 12.7 mph 19.6 mph N/A   Overcast
7:35 AM 32.0 °F 23.0 °F 30.2 °F 93% 29.89 in 7.0 mi West 11.5 mph 19.6 mph N/A   Overcast
7:55 AM 32.0 °F 22.5 °F 30.2 °F 93% 29.90 in 10.0 mi West 12.7 mph - N/A   Overcast
8:15 AM 32.0 °F 22.5 °F 30.2 °F 93% 29.90 in 7.0 mi West 12.7 mph - N/A   Overcast
8:35 AM 32.0 °F 22.1 °F 30.2 °F 93% 29.91 in 7.0 mi West 13.8 mph 18.4 mph N/A   Overcast
8:55 AM 32.0 °F 22.1 °F 30.2 °F 93% 29.92 in 10.0 mi West 13.8 mph 18.4 mph N/A   Overcast
9:15 AM 32.0 °F 23.6 °F 30.2 °F 93% 29.94 in 10.0 mi West 10.4 mph 13.8 mph N/A   Overcast
9:35 AM 32.0 °F 21.6 °F 28.4 °F 87% 29.94 in 10.0 mi West 15.0 mph - N/A   Overcast
9:55 AM 32.0 °F 22.5 °F 28.4 °F 87% 29.94 in 10.0 mi West 12.7 mph - N/A   Overcast
10:15 AM 32.0 °F 22.5 °F 28.4 °F 87% 29.95 in 10.0 mi WSW 12.7 mph - N/A   Overcast
10:35 AM 32.0 °F 23.0 °F 28.4 °F 87% 29.95 in 10.0 mi West 11.5 mph 19.6 mph N/A   Overcast
10:55 AM 32.0 °F 22.1 °F 28.4 °F 87% 29.95 in 10.0 mi West 13.8 mph 18.4 mph N/A   Overcast
11:15 AM 32.0 °F 22.1 °F 28.4 °F 87% 29.94 in 10.0 mi West 13.8 mph - N/A   Overcast
11:35 AM 32.0 °F 22.5 °F 28.4 °F 87% 29.95 in 10.0 mi West 12.7 mph - N/A   Overcast
11:55 AM 32.0 °F 22.5 °F 28.4 °F 87% 29.95 in 10.0 mi WSW 12.7 mph - N/A   Overcast
12:15 PM 32.0 °F 21.2 °F 28.4 °F 87% 29.96 in 10.0 mi West 16.1 mph - N/A   Overcast
12:35 PM 32.0 °F 21.6 °F 30.2 °F 93% 29.96 in 10.0 mi West 15.0 mph 20.7 mph N/A   Overcast
12:55 PM 32.0 °F 19.8 °F 28.4 °F 87% 29.98 in 10.0 mi West 20.7 mph 27.6 mph N/A   Overcast
1:15 PM 32.0 °F 20.1 °F 28.4 °F 87% 29.97 in 10.0 mi West 19.6 mph 25.3 mph N/A   Overcast
1:35 PM 32.0 °F 20.8 °F 28.4 °F 87% 29.96 in 10.0 mi West 17.3 mph 20.7 mph N/A   Overcast
1:55 PM 32.0 °F 22.1 °F 28.4 °F 87% 29.97 in 10.0 mi West 13.8 mph 21.9 mph N/A   Overcast
2:15 PM 32.0 °F 21.2 °F 28.4 °F 87% 29.97 in 10.0 mi West 16.1 mph - N/A   Overcast
2:35 PM 33.8 °F 23.2 °F 28.4 °F 81% 29.97 in 10.0 mi West 17.3 mph 21.9 mph N/A   Overcast
2:55 PM 33.8 °F 23.9 °F 28.4 °F 81% 29.95 in 10.0 mi WSW 15.0 mph 21.9 mph N/A   Overcast
3:15 PM 33.8 °F 23.2 °F 28.4 °F 81% 29.95 in 10.0 mi WSW 17.3 mph - N/A   Overcast
3:35 PM 35.6 °F 26.2 °F 28.4 °F 75% 29.94 in 10.0 mi WSW 15.0 mph 19.6 mph N/A   Overcast
3:55 PM 35.6 °F 26.2 °F 30.2 °F 81% 29.93 in 10.0 mi WSW 15.0 mph - N/A   Overcast
4:15 PM 35.6 °F 25.9 °F 30.2 °F 81% 29.94 in 10.0 mi WSW 16.1 mph 21.9 mph N/A   Overcast
4:35 PM 37.4 °F 28.9 °F 30.2 °F 75% 29.94 in 10.0 mi West 13.8 mph 21.9 mph N/A   Overcast
4:55 PM 37.4 °F 28.9 °F 30.2 °F 75% 29.94 in 10.0 mi WSW 13.8 mph 20.7 mph N/A   Overcast
5:15 PM 37.4 °F 28.5 °F 30.2 °F 75% 29.93 in 10.0 mi WSW 15.0 mph - N/A   Overcast
5:35 PM 37.4 °F 29.3 °F 30.2 °F 75% 29.93 in 10.0 mi WSW 12.7 mph 23.0 mph N/A   Overcast
5:55 PM 37.4 °F 29.8 °F 30.2 °F 75% 29.93 in 10.0 mi West 11.5 mph - N/A   Overcast
6:15 PM 37.4 °F 29.3 °F 30.2 °F 75% 29.94 in 10.0 mi West 12.7 mph - N/A   Overcast
6:35 PM 37.4 °F 28.5 °F 30.2 °F 75% 29.94 in 10.0 mi West 15.0 mph - N/A   Overcast
6:55 PM 37.4 °F 29.3 °F 30.2 °F 75% 29.95 in 10.0 mi WNW 12.7 mph - N/A   Overcast
7:15 PM 37.4 °F 29.3 °F 30.2 °F 75% 29.96 in 10.0 mi WNW 12.7 mph 21.9 mph N/A   Overcast
7:35 PM 35.6 °F 25.9 °F 28.4 °F 75% 29.97 in 10.0 mi West 16.1 mph 21.9 mph N/A   Scattered Clouds
7:55 PM 35.6 °F 28.0 °F 28.4 °F 75% 29.97 in 10.0 mi WNW 10.4 mph - N/A   Clear
8:15 PM 33.8 °F 27.0 °F 26.6 °F 75% 29.98 in 10.0 mi WNW 8.1 mph 17.3 mph N/A   Scattered Clouds
8:35 PM 33.8 °F 28.6 °F 26.6 °F 75% 29.98 in 10.0 mi WNW 5.8 mph - N/A   Scattered Clouds
8:55 PM 32.0 °F 28.7 °F 28.4 °F 87% 29.98 in 10.0 mi West 3.5 mph - N/A   Clear
9:15 PM 32.0 °F 28.7 °F 28.4 °F 87% 29.97 in 10.0 mi WSW 3.5 mph - N/A   Clear
9:35 PM 32.0 °F 27.5 °F 28.4 °F 87% 29.97 in 10.0 mi SW 4.6 mph - N/A   Clear
9:55 PM 32.0 °F 27.5 °F 28.4 °F 87% 29.98 in 10.0 mi SW 4.6 mph - N/A   Mostly Cloudy
10:15 PM 33.8 °F 26.4 °F 28.4 °F 81% 29.98 in 10.0 mi WSW 9.2 mph - N/A   Overcast
10:35 PM 32.0 °F 22.1 °F 32.0 °F 100% 29.99 in 0.8 mi West 13.8 mph - N/A Snow Snow
10:55 PM 32.0 °F 24.2 °F 32.0 °F 100% 29.99 in 0.8 mi West 9.2 mph - N/A Snow Light Snow
11:15 PM 32.0 °F 23.6 °F 32.0 °F 100% 29.99 in 5.0 mi West 10.4 mph - N/A   Overcast
11:35 PM 32.0 °F 24.2 °F 32.0 °F 100% 29.99 in 10.0 mi West 9.2 mph - N/A   Overcast
11:55 PM 32.0 °F 24.2 °F 32.0 °F 100% 29.99 in 10.0 mi West 9.2 mph - N/A   Overcast